Time,TemperatureF,DewpointF,PressureIn,WindDirection,WindDirectionDegrees,WindSpeedMPH,WindSpeedGustMPH,Humidity,HourlyPrecipIn,Conditions,Clouds,dailyrainin,SoftwareType,DateUTC
2013-01-16 00:02:00,21.0,10.0,29.11,SSE,148,2.0,3.0,61,0.00,,,0.00,,2013-01-16 06:02:00,
2013-01-16 00:12:00,21.0,10.0,29.11,SSE,148,2.0,3.0,61,0.00,,,0.00,,2013-01-16 06:12:00,
2013-01-16 00:22:00,22.0,11.0,28.96,SSE,159,0.0,0.0,61,0.00,,,0.00,,2013-01-16 06:22:00,
2013-01-16 00:32:00,21.0,10.0,29.02,SSE,159,2.0,3.0,61,0.00,,,0.00,,2013-01-16 06:32:00,
2013-01-16 00:43:00,21.0,10.0,29.02,SSE,159,2.0,3.0,61,0.00,,,0.00,,2013-01-16 06:43:00,
2013-01-16 00:53:00,21.0,10.0,29.17,SSE,159,0.0,0.0,61,0.00,,,0.00,,2013-01-16 06:53:00,
2013-01-16 01:02:00,21.0,10.0,29.02,SSE,159,0.0,0.0,61,0.00,,,0.00,,2013-01-16 07:02:00,
2013-01-16 01:12:00,21.0,10.0,29.02,SSE,159,0.0,0.0,61,0.00,,,0.00,,2013-01-16 07:12:00,
2013-01-16 01:22:00,20.0,8.0,29.08,SSE,159,0.0,0.0,60,0.00,,,0.00,,2013-01-16 07:22:00,
2013-01-16 01:32:00,20.0,8.0,29.20,SSE,159,2.0,2.0,60,0.00,,,0.00,,2013-01-16 07:32:00,
2013-01-16 01:42:00,20.0,8.0,29.20,SSE,159,2.0,2.0,60,0.00,,,0.00,,2013-01-16 07:42:00,
2013-01-16 01:52:00,22.0,11.0,29.14,SSE,159,3.0,3.0,62,0.00,,,0.00,,2013-01-16 07:52:00,
2013-01-16 02:02:00,22.0,11.0,29.08,SSE,149,0.0,3.0,62,0.00,,,0.00,,2013-01-16 08:02:00,
2013-01-16 02:12:00,22.0,11.0,29.08,SSE,149,0.0,3.0,62,0.00,,,0.00,,2013-01-16 08:12:00,
2013-01-16 02:22:00,22.0,11.0,29.23,SSE,148,3.0,4.0,62,0.00,,,0.00,,2013-01-16 08:22:00,
2013-01-16 02:32:00,22.0,11.0,29.26,SSE,154,2.0,3.0,62,0.00,,,0.00,,2013-01-16 08:32:00,
2013-01-16 02:42:00,22.0,11.0,29.26,SSE,154,2.0,3.0,62,0.00,,,0.00,,2013-01-16 08:42:00,
2013-01-16 02:52:00,21.0,10.0,29.14,SE,145,0.0,3.0,62,0.00,,,0.00,,2013-01-16 08:52:00,
2013-01-16 03:02:00,21.0,10.0,29.29,SSE,157,0.0,2.0,62,0.00,,,0.00,,2013-01-16 09:02:00,
2013-01-16 03:11:00,21.0,10.0,29.29,SSE,157,0.0,2.0,62,0.00,,,0.00,,2013-01-16 09:11:00,
2013-01-16 03:22:00,21.0,10.0,29.32,SSE,160,0.0,2.0,63,0.00,,,0.00,,2013-01-16 09:22:00,
2013-01-16 03:32:00,20.0,9.0,29.17,SSE,160,0.0,0.0,62,0.00,,,0.00,,2013-01-16 09:32:00,
2013-01-16 03:42:00,20.0,9.0,29.17,SSE,160,0.0,0.0,62,0.00,,,0.00,,2013-01-16 09:42:00,
2013-01-16 03:53:00,19.0,9.0,29.35,SSE,147,2.0,3.0,63,0.00,,,0.00,,2013-01-16 09:53:00,
2013-01-16 04:02:00,19.0,9.0,29.35,SSE,147,0.0,2.0,64,0.00,,,0.00,,2013-01-16 10:02:00,
2013-01-16 04:12:00,19.0,9.0,29.35,SSE,147,0.0,2.0,64,0.00,,,0.00,,2013-01-16 10:12:00,
2013-01-16 04:22:00,20.0,10.0,29.17,SSE,147,0.0,0.0,65,0.00,,,0.00,,2013-01-16 10:22:00,
2013-01-16 04:32:00,20.0,11.0,29.32,SE,146,2.0,3.0,66,0.00,,,0.00,,2013-01-16 10:32:00,
2013-01-16 04:42:00,20.0,11.0,29.32,SE,146,2.0,3.0,66,0.00,,,0.00,,2013-01-16 10:42:00,
2013-01-16 04:53:00,21.0,12.0,29.35,South,187,0.0,0.0,68,0.00,,,0.00,,2013-01-16 10:53:00,
2013-01-16 05:02:00,21.0,12.0,29.20,SSE,152,0.0,0.0,69,0.00,,,0.00,,2013-01-16 11:02:00,
2013-01-16 05:12:00,21.0,12.0,29.20,SSE,152,0.0,0.0,69,0.00,,,0.00,,2013-01-16 11:12:00,
2013-01-16 05:22:00,21.0,12.0,29.35,South,172,2.0,2.0,69,0.00,,,0.00,,2013-01-16 11:22:00,
2013-01-16 05:32:00,22.0,13.0,29.44,SE,126,3.0,3.0,69,0.00,,,0.00,,2013-01-16 11:32:00,
2013-01-16 05:42:00,22.0,13.0,29.44,SE,126,3.0,3.0,69,0.00,,,0.00,,2013-01-16 11:42:00,
2013-01-16 05:53:00,22.0,13.0,29.23,SSW,196,0.0,2.0,69,0.00,,,0.00,,2013-01-16 11:53:00,
2013-01-16 06:03:00,21.0,12.0,29.41,SSW,196,2.0,2.0,69,0.00,,,0.00,,2013-01-16 12:03:00,
2013-01-16 06:12:00,21.0,12.0,29.41,SSW,196,2.0,2.0,69,0.00,,,0.00,,2013-01-16 12:12:00,
2013-01-16 06:22:00,22.0,14.0,29.52,SSW,194,0.0,0.0,70,0.00,,,0.00,,2013-01-16 12:22:00,
2013-01-16 06:33:00,22.0,13.0,29.26,SW,217,2.0,3.0,69,0.00,,,0.00,,2013-01-16 12:33:00,
2013-01-16 06:43:00,22.0,13.0,29.26,SW,217,2.0,3.0,69,0.00,,,0.00,,2013-01-16 12:43:00,
2013-01-16 06:53:00,23.0,14.0,29.47,SW,223,2.0,3.0,68,0.00,,,0.00,,2013-01-16 12:53:00,
2013-01-16 07:02:00,23.0,14.0,29.55,SW,223,2.0,3.0,67,0.00,,,0.00,,2013-01-16 13:02:00,
2013-01-16 07:12:00,23.0,14.0,29.55,SW,223,2.0,3.0,67,0.00,,,0.00,,2013-01-16 13:12:00,
2013-01-16 07:22:00,22.0,12.0,29.29,SW,223,0.0,0.0,66,0.00,,,0.00,,2013-01-16 13:22:00,
2013-01-16 07:33:00,22.0,12.0,29.38,SW,223,0.0,0.0,66,0.00,,,0.00,,2013-01-16 13:33:00,
2013-01-16 07:43:00,22.0,12.0,29.38,SW,223,0.0,0.0,66,0.00,,,0.00,,2013-01-16 13:43:00,
2013-01-16 07:53:00,21.0,11.0,29.47,SW,223,0.0,0.0,66,0.00,,,0.00,,2013-01-16 13:53:00,
2013-01-16 08:03:00,21.0,11.0,29.20,SW,223,0.0,0.0,66,0.00,,,0.00,,2013-01-16 14:03:00,
2013-01-16 08:12:00,21.0,11.0,29.20,SW,223,0.0,0.0,66,0.00,,,0.00,,2013-01-16 14:12:00,
2013-01-16 08:22:00,20.0,11.0,29.32,SW,223,0.0,0.0,67,0.00,,,0.00,,2013-01-16 14:22:00,
2013-01-16 08:32:00,21.0,12.0,29.47,SW,223,0.0,0.0,68,0.00,,,0.00,,2013-01-16 14:32:00,
2013-01-16 08:42:00,21.0,12.0,29.47,SW,223,0.0,0.0,68,0.00,,,0.00,,2013-01-16 14:42:00,
2013-01-16 08:53:00,23.0,14.0,29.26,SW,222,0.0,0.0,69,0.00,,,0.00,,2013-01-16 14:53:00,
2013-01-16 09:03:00,24.0,16.0,29.52,SW,216,2.0,2.0,70,0.00,,,0.00,,2013-01-16 15:03:00,
2013-01-16 09:12:00,24.0,16.0,29.52,SW,216,2.0,2.0,70,0.00,,,0.00,,2013-01-16 15:12:00,
2013-01-16 09:22:00,26.0,18.0,29.67,SW,215,0.0,0.0,71,0.00,,,0.00,,2013-01-16 15:22:00,
2013-01-16 09:33:00,26.0,18.0,29.38,SSW,212,3.0,3.0,71,0.00,,,0.00,,2013-01-16 15:33:00,
2013-01-16 09:43:00,26.0,18.0,29.38,SSW,212,3.0,3.0,71,0.00,,,0.00,,2013-01-16 15:43:00,
2013-01-16 09:53:00,28.0,20.0,29.61,SSE,164,3.0,3.0,71,0.00,,,0.00,,2013-01-16 15:53:00,
2013-01-16 10:03:00,28.0,20.0,29.85,SSE,168,2.0,3.0,71,0.00,,,0.00,,2013-01-16 16:03:00,
2013-01-16 10:12:00,28.0,20.0,29.85,SSE,168,2.0,3.0,71,0.00,,,0.00,,2013-01-16 16:12:00,
2013-01-16 10:22:00,31.0,23.0,29.47,SE,142,3.0,3.0,71,0.00,,,0.00,,2013-01-16 16:22:00,
2013-01-16 10:32:00,33.0,24.0,29.64,SW,217,2.0,3.0,70,0.00,,,0.00,,2013-01-16 16:32:00,
2013-01-16 10:42:00,33.0,24.0,29.64,SW,217,2.0,3.0,70,0.00,,,0.00,,2013-01-16 16:42:00,
2013-01-16 10:53:00,36.0,24.0,29.85,SW,229,3.0,3.0,62,0.00,,,0.00,,2013-01-16 16:53:00,
2013-01-16 11:02:00,38.0,24.0,29.64,West,260,5.0,5.0,57,0.00,,,0.00,,2013-01-16 17:02:00,
2013-01-16 11:12:00,38.0,24.0,29.64,West,260,5.0,5.0,57,0.00,,,0.00,,2013-01-16 17:12:00,
2013-01-16 11:22:00,42.0,25.0,29.61,West,265,3.0,4.0,50,0.00,,,0.00,,2013-01-16 17:22:00,
2013-01-16 11:33:00,43.0,25.0,29.79,West,267,2.0,3.0,49,0.00,,,0.00,,2013-01-16 17:33:00,
2013-01-16 11:43:00,43.0,25.0,29.79,West,267,2.0,3.0,49,0.00,,,0.00,,2013-01-16 17:43:00,
2013-01-16 11:53:00,45.0,25.0,29.94,West,267,0.0,5.0,45,0.00,,,0.00,,2013-01-16 17:53:00,
2013-01-16 12:02:00,46.0,26.0,30.09,West,260,3.0,3.0,45,0.00,,,0.00,,2013-01-16 18:02:00,
2013-01-16 12:12:00,46.0,26.0,30.09,West,260,3.0,3.0,45,0.00,,,0.00,,2013-01-16 18:12:00,
2013-01-16 12:23:00,48.0,26.0,29.76,West,265,5.0,5.0,42,0.00,,,0.00,,2013-01-16 18:23:00,
2013-01-16 12:33:00,48.0,25.0,29.73,NW,312,5.0,5.0,41,0.00,,,0.00,,2013-01-16 18:33:00,
2013-01-16 12:42:00,48.0,25.0,29.73,NW,312,5.0,5.0,41,0.00,,,0.00,,2013-01-16 18:42:00,
2013-01-16 12:53:00,50.0,26.0,29.82,West,275,5.0,5.0,39,0.00,,,0.00,,2013-01-16 18:53:00,
2013-01-16 13:03:00,51.0,27.0,29.94,West,259,3.0,5.0,39,0.00,,,0.00,,2013-01-16 19:03:00,
2013-01-16 13:12:00,51.0,27.0,29.94,West,259,3.0,5.0,39,0.00,,,0.00,,2013-01-16 19:12:00,
2013-01-16 13:23:00,52.0,27.0,30.00,West,266,4.0,4.0,37,0.00,,,0.00,,2013-01-16 19:23:00,
2013-01-16 13:33:00,52.0,27.0,30.09,NW,312,3.0,7.0,37,0.00,,,0.00,,2013-01-16 19:33:00,
2013-01-16 13:42:00,52.0,27.0,30.09,NW,312,3.0,7.0,37,0.00,,,0.00,,2013-01-16 19:42:00,
2013-01-16 13:53:00,53.0,27.0,30.14,WNW,299,5.0,5.0,37,0.00,,,0.00,,2013-01-16 19:53:00,
2013-01-16 14:03:00,53.0,27.0,30.17,NW,322,3.0,7.0,37,0.00,,,0.00,,2013-01-16 20:03:00,
2013-01-16 14:12:00,53.0,27.0,30.17,NW,322,3.0,7.0,37,0.00,,,0.00,,2013-01-16 20:12:00,
2013-01-16 14:23:00,54.0,28.0,30.20,NW,311,3.0,5.0,36,0.00,,,0.00,,2013-01-16 20:23:00,
2013-01-16 14:33:00,54.0,28.0,30.23,NW,311,3.0,5.0,36,0.00,,,0.00,,2013-01-16 20:33:00,
2013-01-16 14:42:00,54.0,28.0,30.23,NW,311,3.0,5.0,36,0.00,,,0.00,,2013-01-16 20:42:00,
2013-01-16 14:53:00,56.0,29.0,30.26,NNW,333,3.0,5.0,35,0.00,,,0.00,,2013-01-16 20:53:00,
2013-01-16 15:02:00,56.0,29.0,30.23,West,271,3.0,3.0,35,0.00,,,0.00,,2013-01-16 21:02:00,
2013-01-16 15:12:00,56.0,29.0,30.23,West,271,3.0,3.0,35,0.00,,,0.00,,2013-01-16 21:12:00,
2013-01-16 15:22:00,56.0,29.0,30.20,NW,308,5.0,6.0,35,0.00,,,0.00,,2013-01-16 21:22:00,
2013-01-16 15:33:00,57.0,30.0,30.20,WNW,288,3.0,3.0,35,0.00,,,0.00,,2013-01-16 21:33:00,
2013-01-16 15:43:00,57.0,30.0,30.20,WNW,288,3.0,3.0,35,0.00,,,0.00,,2013-01-16 21:43:00,
2013-01-16 15:53:00,57.0,30.0,30.26,WNW,297,3.0,7.0,35,0.00,,,0.00,,2013-01-16 21:53:00,
2013-01-16 16:02:00,56.0,29.0,30.29,NW,307,2.0,5.0,35,0.00,,,0.00,,2013-01-16 22:02:00,
2013-01-16 16:12:00,56.0,29.0,30.29,NW,307,2.0,5.0,35,0.00,,,0.00,,2013-01-16 22:12:00,
2013-01-16 16:22:00,56.0,28.0,30.35,NW,317,5.0,5.0,34,0.00,,,0.00,,2013-01-16 22:22:00,
2013-01-16 16:33:00,55.0,28.0,30.44,WNW,295,4.0,5.0,35,0.00,,,0.00,,2013-01-16 22:33:00,
2013-01-16 16:43:00,55.0,28.0,30.44,WNW,295,4.0,5.0,35,0.00,,,0.00,,2013-01-16 22:43:00,
2013-01-16 16:53:00,54.0,27.0,30.53,NW,306,4.0,4.0,35,0.00,,,0.00,,2013-01-16 22:53:00,
2013-01-16 17:02:00,53.0,27.0,30.53,WNW,282,2.0,3.0,36,0.00,,,0.00,,2013-01-16 23:02:00,
2013-01-16 17:12:00,52.0,26.0,30.53,WNW,299,2.0,3.0,36,0.00,,,0.00,,2013-01-16 23:12:00,
2013-01-16 17:22:00,52.0,26.0,30.53,WNW,299,2.0,3.0,36,0.00,,,0.00,,2013-01-16 23:22:00,
2013-01-16 17:32:00,51.0,26.0,30.50,WNW,299,2.0,3.0,37,0.00,,,0.00,,2013-01-16 23:32:00,
2013-01-16 17:42:00,51.0,26.0,30.50,WNW,299,2.0,3.0,37,0.00,,,0.00,,2013-01-16 23:42:00,
2013-01-16 17:53:00,49.0,24.0,30.59,WNW,300,0.0,0.0,37,0.00,,,0.00,,2013-01-16 23:53:00,
2013-01-16 18:02:00,48.0,23.0,30.65,WNW,282,0.0,0.0,37,0.00,,,0.00,,2013-01-17 00:02:00,
2013-01-16 18:12:00,48.0,23.0,30.65,WNW,282,0.0,0.0,37,0.00,,,0.00,,2013-01-17 00:12:00,
2013-01-16 18:22:00,46.0,22.0,30.65,WNW,282,0.0,0.0,39,0.00,,,0.00,,2013-01-17 00:22:00,
2013-01-16 18:32:00,44.0,21.0,30.68,WNW,282,0.0,0.0,40,0.00,,,0.00,,2013-01-17 00:32:00,
2013-01-16 18:42:00,44.0,21.0,30.68,WNW,282,0.0,0.0,40,0.00,,,0.00,,2013-01-17 00:42:00,
2013-01-16 18:52:00,42.0,20.0,30.68,WNW,282,0.0,0.0,41,0.00,,,0.00,,2013-01-17 00:52:00,
2013-01-16 19:02:00,42.0,22.0,30.62,WNW,282,0.0,0.0,44,0.00,,,0.00,,2013-01-17 01:02:00,
2013-01-16 19:12:00,42.0,22.0,30.62,WNW,282,0.0,0.0,44,0.00,,,0.00,,2013-01-17 01:12:00,
2013-01-16 19:22:00,40.0,20.0,30.50,WNW,282,0.0,0.0,44,0.00,,,0.00,,2013-01-17 01:22:00,
2013-01-16 19:32:00,38.0,18.0,30.47,WNW,282,0.0,0.0,44,0.00,,,0.00,,2013-01-17 01:32:00,
2013-01-16 19:42:00,38.0,18.0,30.47,WNW,282,0.0,0.0,44,0.00,,,0.00,,2013-01-17 01:42:00,
2013-01-16 19:52:00,36.0,18.0,30.38,WNW,282,0.0,0.0,47,0.00,,,0.00,,2013-01-17 01:52:00,
2013-01-16 20:02:00,35.0,18.0,30.32,WNW,282,0.0,0.0,49,0.00,,,0.00,,2013-01-17 02:02:00,
2013-01-16 20:12:00,35.0,18.0,30.32,WNW,282,0.0,0.0,49,0.00,,,0.00,,2013-01-17 02:12:00,
2013-01-16 20:22:00,34.0,18.0,30.32,WNW,282,0.0,0.0,51,0.00,,,0.00,,2013-01-17 02:22:00,
2013-01-16 20:32:00,34.0,18.0,30.32,WNW,282,0.0,0.0,51,0.00,,,0.00,,2013-01-17 02:32:00,
2013-01-16 20:42:00,34.0,18.0,30.32,WNW,282,0.0,0.0,51,0.00,,,0.00,,2013-01-17 02:42:00,
2013-01-16 20:52:00,34.0,18.0,30.32,WNW,282,0.0,0.0,51,0.00,,,0.00,,2013-01-17 02:52:00,
2013-01-16 21:02:00,37.0,23.0,30.59,West,273,2.0,3.0,57,0.00,,,0.00,,2013-01-17 03:02:00,
2013-01-16 21:12:00,37.0,23.0,30.59,West,273,2.0,3.0,57,0.00,,,0.00,,2013-01-17 03:12:00,
2013-01-16 21:22:00,38.0,23.0,30.71,WSW,258,3.0,3.0,54,0.00,,,0.00,,2013-01-17 03:22:00,
2013-01-16 21:32:00,38.0,23.0,30.79,West,273,0.0,0.0,55,0.00,,,0.00,,2013-01-17 03:32:00,
2013-01-16 21:42:00,38.0,23.0,30.79,West,273,0.0,0.0,55,0.00,,,0.00,,2013-01-17 03:42:00,
2013-01-16 21:52:00,37.0,23.0,30.68,WNW,297,3.0,3.0,57,0.00,,,0.00,,2013-01-17 03:52:00,
2013-01-16 22:02:00,37.0,24.0,30.73,WNW,285,3.0,3.0,58,0.00,,,0.00,,2013-01-17 04:02:00,
2013-01-16 22:12:00,37.0,24.0,30.82,WNW,293,3.0,3.0,60,0.00,,,0.00,,2013-01-17 04:12:00,
2013-01-16 22:22:00,37.0,24.0,30.82,WNW,293,3.0,3.0,60,0.00,,,0.00,,2013-01-17 04:22:00,
2013-01-16 22:32:00,37.0,24.0,30.82,WNW,293,3.0,3.0,60,0.00,,,0.00,,2013-01-17 04:32:00,
2013-01-16 22:42:00,37.0,24.0,30.82,WNW,293,3.0,3.0,60,0.00,,,0.00,,2013-01-17 04:42:00,
2013-01-16 22:52:00,37.0,24.0,30.79,West,281,3.0,3.0,60,0.00,,,0.00,,2013-01-17 04:52:00,
2013-01-16 23:04:00,37.0,24.0,30.82,West,278,2.0,2.0,59,0.00,,,0.00,,2013-01-17 05:04:00,
2013-01-16 23:12:00,37.0,24.0,30.82,West,278,2.0,2.0,59,0.00,,,0.00,,2013-01-17 05:12:00,
2013-01-16 23:22:00,36.0,23.0,30.88,NW,313,2.0,3.0,60,0.00,,,0.00,,2013-01-17 05:22:00,
2013-01-16 23:33:00,36.0,23.0,30.94,NW,309,3.0,3.0,60,0.00,,,0.00,,2013-01-17 05:33:00,
2013-01-16 23:42:00,36.0,23.0,30.94,NW,309,3.0,3.0,60,0.00,,,0.00,,2013-01-17 05:42:00,
2013-01-16 23:53:00,36.0,24.0,30.88,NW,316,2.0,3.0,62,0.00,,,0.00,,2013-01-17 05:53:00,